| time (UTC) | temp F | wind direction | speed knots | gust knots | rain 1hr in | rain 24hr in | rain mn in | humidity % | barometer mb |
| 20260504023034 | 65 | 0 | 0.0 | 0.0 | 0.00 | 0.01 | 0.00 | 83 | 1016.8 |
| 20260504022514 | 65 | 0 | 0.0 | 0.0 | 0.00 | 0.01 | 0.00 | 83 | 1016.8 |
| 20260504022013 | 65 | 0 | 0.0 | 0.9 | 0.00 | 0.01 | 0.00 | 82 | 1016.9 |
| 20260504021535 | 65 | 0 | 0.0 | 1.7 | 0.00 | 0.01 | 0.00 | 82 | 1016.8 |
| 20260504021013 | 66 | 0 | 0.0 | 1.7 | 0.00 | 0.01 | 0.00 | 81 | 1016.6 |
| 20260504020515 | 66 | 0 | 0.0 | 2.6 | 0.00 | 0.01 | 0.00 | 81 | 1016.6 |
| 20260504020034 | 66 | 0 | 0.0 | 2.6 | 0.00 | 0.01 | 0.00 | 81 | 1016.5 |
| 20260504015515 | 66 | 0 | 0.0 | 1.7 | 0.00 | 0.02 | 0.00 | 80 | 1016.5 |
| 20260504015015 | 66 | 342 | 0.0 | 0.9 | 0.00 | 0.02 | 0.00 | 80 | 1016.5 |
| 20260504014536 | 66 | 341 | 0.0 | 0.9 | 0.00 | 0.02 | 0.00 | 80 | 1016.5 |
| 20260504014016 | 66 | 24 | 0.0 | 0.9 | 0.00 | 0.02 | 0.00 | 80 | 1016.4 |
| 20260504013515 | 66 | 0 | 0.0 | 1.7 | 0.00 | 0.02 | 0.00 | 79 | 1016.5 |
| 20260504013036 | 66 | 0 | 0.0 | 1.7 | 0.00 | 0.02 | 0.00 | 79 | 1016.6 |
| 20260504012516 | 66 | 31 | 0.0 | 0.9 | 0.00 | 0.02 | 0.00 | 79 | 1016.5 |
| 20260504012016 | 66 | 0 | 0.0 | 2.6 | 0.00 | 0.02 | 0.00 | 78 | 1016.4 |
| 20260504011536 | 67 | 0 | 0.0 | 2.6 | 0.00 | 0.02 | 0.00 | 78 | 1016.4 |
| 20260504011016 | 67 | 0 | 0.0 | 2.6 | 0.00 | 0.02 | 0.00 | 78 | 1016.3 |
| 20260504010515 | 67 | 0 | 0.0 | 2.6 | 0.00 | 0.02 | 0.00 | 78 | 1016.3 |
| 20260504010046 | 67 | 0 | 0.0 | 2.6 | 0.00 | 0.02 | 0.00 | 77 | 1016.1 |
| 20260504005513 | 67 | 323 | 0.0 | 2.6 | 0.00 | 0.02 | 0.00 | 77 | 1016.1 |
| 20260504005016 | 67 | 0 | 0.0 | 2.6 | 0.00 | 0.02 | 0.00 | 76 | 1016.1 |
| 20260504004532 | 68 | 0 | 0.0 | 2.6 | 0.00 | 0.02 | 0.00 | 76 | 1016.2 |
| 20260504004015 | 68 | 0 | 0.0 | 1.7 | 0.00 | 0.02 | 0.00 | 76 | 1016.3 |
| 20260504003518 | 68 | 300 | 0.0 | 1.7 | 0.00 | 0.02 | 0.00 | 75 | 1016.3 |
| 20260504003031 | 68 | 0 | 0.0 | 1.7 | 0.00 | 0.02 | 0.00 | 75 | 1016.2 |
| 20260504002514 | 68 | 330 | 0.0 | 1.7 | 0.00 | 0.02 | 0.00 | 74 | 1016.2 |
| 20260504002013 | 69 | 11 | 0.0 | 2.6 | 0.00 | 0.02 | 0.00 | 73 | 1016.2 |
| 20260504001533 | 69 | 360 | 0.0 | 2.6 | 0.00 | 0.02 | 0.00 | 73 | 1016.2 |
| 20260504001017 | 69 | 303 | 0.0 | 2.6 | 0.00 | 0.02 | 0.00 | 73 | 1016.1 |
| 20260504000518 | 69 | 328 | 0.0 | 2.6 | 0.00 | 0.02 | 0.00 | 72 | 1015.9 |
| 20260504000031 | 70 | 3 | 0.0 | 2.6 | 0.00 | 0.02 | 0.00 | 71 | 1015.8 |
| 20260503235514 | 70 | 357 | 0.9 | 2.6 | 0.00 | 0.02 | 0.00 | 71 | 1015.8 |
| 20260503235014 | 70 | 332 | 0.0 | 2.6 | 0.00 | 0.02 | 0.00 | 71 | 1015.7 |
| 20260503234534 | 70 | 350 | 0.0 | 2.6 | 0.00 | 0.02 | 0.00 | 70 | 1015.8 |
| 20260503234018 | 70 | 13 | 0.9 | 3.5 | 0.00 | 0.02 | 0.00 | 70 | 1015.7 |
| 20260503233512 | 71 | 56 | 0.9 | 4.3 | 0.00 | 0.02 | 0.00 | 69 | 1015.7 |
| 20260503233030 | 71 | 140 | 0.9 | 4.3 | 0.00 | 0.02 | 0.00 | 69 | 1015.7 |
| 20260503232514 | 71 | 330 | 0.9 | 3.5 | 0.00 | 0.02 | 0.00 | 69 | 1015.7 |
| 20260503232018 | 71 | 8 | 0.9 | 5.2 | 0.00 | 0.02 | 0.00 | 69 | 1015.8 |
| 20260503231532 | 71 | 4 | 1.7 | 5.2 | 0.00 | 0.02 | 0.00 | 68 | 1015.7 |
| 20260503231012 | 72 | 334 | 0.9 | 3.5 | 0.00 | 0.02 | 0.00 | 68 | 1015.8 |
| 20260503230514 | 72 | 32 | 0.9 | 3.5 | 0.00 | 0.02 | 0.00 | 68 | 1015.8 |
| 20260503230030 | 72 | 285 | 0.9 | 3.5 | 0.00 | 0.02 | 0.00 | 68 | 1015.7 |
| 20260503225513 | 73 | 13 | 0.9 | 2.6 | 0.00 | 0.02 | 0.00 | 67 | 1015.7 |
| 20260503225013 | 73 | 328 | 0.0 | 2.6 | 0.00 | 0.02 | 0.00 | 67 | 1015.8 |
| 20260503224532 | 73 | 356 | 0.9 | 4.3 | 0.00 | 0.02 | 0.00 | 66 | 1015.7 |
| 20260503224023 | 73 | 39 | 0.9 | 4.3 | 0.00 | 0.02 | 0.00 | 66 | 1015.8 |
| 20260503223513 | 73 | 18 | 1.7 | 4.3 | 0.00 | 0.02 | 0.00 | 65 | 1015.7 |
| 20260503223033 | 74 | 341 | 1.7 | 4.3 | 0.00 | 0.02 | 0.00 | 64 | 1015.8 |
| 20260503222512 | 75 | 357 | 0.9 | 4.3 | 0.00 | 0.02 | 0.00 | 63 | 1015.7 |
| 20260503222013 | 75 | 23 | 0.9 | 4.3 | 0.00 | 0.02 | 0.00 | 63 | 1015.7 |
| 20260503221538 | 75 | 129 | 1.7 | 3.5 | 0.00 | 0.02 | 0.00 | 63 | 1015.7 |
| 20260503221014 | 76 | 290 | 0.9 | 3.5 | 0.00 | 0.02 | 0.00 | 62 | 1015.7 |
| 20260503220513 | 75 | 34 | 0.9 | 4.3 | 0.00 | 0.02 | 0.00 | 63 | 1015.6 |
| 20260503220030 | 75 | 3 | 0.9 | 4.3 | 0.00 | 0.02 | 0.00 | 62 | 1015.5 |
| 20260503215513 | 75 | 276 | 1.7 | 4.3 | 0.00 | 0.02 | 0.00 | 62 | 1015.5 |
| 20260503215013 | 75 | 0 | 0.9 | 4.3 | 0.00 | 0.02 | 0.00 | 64 | 1015.3 |
| 20260503214529 | 74 | 20 | 1.7 | 5.2 | 0.00 | 0.02 | 0.00 | 61 | 1015.3 |
| 20260503214020 | 75 | 5 | 1.7 | 5.2 | 0.00 | 0.02 | 0.00 | 60 | 1015.3 |
| 20260503213517 | 76 | 28 | 1.7 | 5.2 | 0.00 | 0.02 | 0.00 | 58 | 1015.4 |
| 20260503213038 | 77 | 46 | 1.7 | 4.3 | 0.00 | 0.02 | 0.00 | 57 | 1015.3 |
| 20260503212513 | 77 | 18 | 0.9 | 7.0 | 0.00 | 0.02 | 0.00 | 58 | 1015.4 |
| 20260503212014 | 77 | 298 | 1.7 | 7.0 | 0.00 | 0.02 | 0.00 | 57 | 1015.4 |
| 20260503211529 | 77 | 13 | 1.7 | 6.1 | 0.00 | 0.02 | 0.00 | 57 | 1015.5 |
| 20260503211016 | 77 | 8 | 1.7 | 6.1 | 0.00 | 0.02 | 0.00 | 59 | 1015.4 |
| 20260503210512 | 77 | 90 | 0.9 | 3.5 | 0.00 | 0.02 | 0.00 | 59 | 1015.4 |
| 20260503210033 | 77 | 79 | 0.9 | 2.6 | 0.00 | 0.02 | 0.00 | 60 | 1015.4 |
| 20260503205513 | 76 | 250 | 0.0 | 4.3 | 0.00 | 0.07 | 0.00 | 59 | 1015.4 |
| 20260503205022 | 76 | 0 | 0.9 | 5.2 | 0.00 | 0.07 | 0.00 | 59 | 1015.6 |
| 20260503204532 | 77 | 11 | 0.9 | 5.2 | 0.00 | 0.07 | 0.00 | 58 | 1015.6 |
| 20260503204013 | 77 | 35 | 0.9 | 4.3 | 0.00 | 0.07 | 0.00 | 61 | 1015.7 |
| 20260503203514 | 76 | 359 | 0.9 | 5.2 | 0.00 | 0.07 | 0.00 | 59 | 1015.8 |
| 20260503203036 | 75 | 356 | 0.9 | 5.2 | 0.00 | 0.07 | 0.00 | 60 | 1015.7 |
| 20260503202518 | 76 | 346 | 2.6 | 5.2 | 0.00 | 0.07 | 0.00 | 58 | 1015.8 |
| 20260503202016 | 76 | 207 | 0.9 | 6.1 | 0.00 | 0.07 | 0.00 | 61 | 1015.6 |
| 20260503201535 | 76 | 63 | 0.9 | 6.1 | 0.00 | 0.07 | 0.00 | 60 | 1015.7 |
| 20260503201016 | 76 | 6 | 1.7 | 6.1 | 0.00 | 0.07 | 0.00 | 62 | 1015.8 |
| 20260503200514 | 76 | 30 | 0.9 | 3.5 | 0.00 | 0.07 | 0.00 | 60 | 1015.8 |
| 20260503200034 | 76 | 352 | 0.9 | 4.3 | 0.00 | 0.07 | 0.00 | 60 | 1015.9 |
| 20260503195517 | 76 | 33 | 1.7 | 4.3 | 0.00 | 0.17 | 0.00 | 61 | 1016.0 |
| 20260503195015 | 76 | 82 | 0.0 | 6.1 | 0.00 | 0.17 | 0.00 | 62 | 1016.0 |
| 20260503194533 | 77 | 56 | 1.7 | 6.1 | 0.00 | 0.17 | 0.00 | 59 | 1016.2 |
| 20260503194016 | 76 | 0 | 0.0 | 4.3 | 0.00 | 0.17 | 0.00 | 60 | 1016.2 |
| 20260503193518 | 77 | 359 | 0.9 | 4.3 | 0.00 | 0.17 | 0.00 | 58 | 1016.5 |
| 20260503193036 | 77 | 29 | 1.7 | 4.3 | 0.00 | 0.17 | 0.00 | 60 | 1016.5 |
| 20260503192514 | 77 | 0 | 0.0 | 4.3 | 0.00 | 0.17 | 0.00 | 63 | 1016.6 |
| 20260503192022 | 76 | 351 | 0.9 | 4.3 | 0.00 | 0.17 | 0.00 | 62 | 1016.7 |
| 20260503191535 | 77 | 25 | 0.9 | 4.3 | 0.00 | 0.17 | 0.00 | 60 | 1016.7 |
| 20260503191016 | 76 | 342 | 0.0 | 7.0 | 0.00 | 0.17 | 0.00 | 63 | 1016.8 |
| 20260503190515 | 76 | 27 | 0.9 | 7.0 | 0.00 | 0.17 | 0.00 | 63 | 1016.9 |
| 20260503190037 | 75 | 349 | 0.9 | 3.5 | 0.00 | 0.17 | 0.00 | 63 | 1016.9 |
| 20260503185516 | 75 | 314 | 0.9 | 3.5 | 0.00 | 0.19 | 0.00 | 63 | 1017.0 |
| 20260503185019 | 76 | 13 | 0.0 | 3.5 | 0.00 | 0.19 | 0.00 | 61 | 1017.0 |
| 20260503184534 | 77 | 49 | 0.9 | 6.1 | 0.00 | 0.19 | 0.00 | 63 | 1017.2 |
| 20260503184014 | 76 | 79 | 1.7 | 6.1 | 0.00 | 0.19 | 0.00 | 64 | 1017.0 |
| 20260503183522 | 76 | 316 | 1.7 | 5.2 | 0.00 | 0.19 | 0.00 | 65 | 1017.0 |
| 20260503183039 | 76 | 304 | 2.6 | 5.2 | 0.00 | 0.19 | 0.00 | 65 | 1017.2 |
| 20260503182513 | 75 | 281 | 1.7 | 6.1 | 0.00 | 0.19 | 0.00 | 67 | 1017.2 |
| 20260503182015 | 75 | 69 | 1.7 | 6.1 | 0.00 | 0.19 | 0.00 | 67 | 1017.2 |
| 20260503181606 | 74 | 360 | 0.9 | 4.3 | 0.00 | 0.19 | 0.00 | 68 | 1017.3 |
| 20260503181019 | 75 | 354 | 1.7 | 4.3 | 0.00 | 0.19 | 0.00 | 66 | 1017.4 |
| 20260503180514 | 74 | 117 | 0.0 | 5.2 | 0.00 | 0.19 | 0.00 | 69 | 1017.4 |
| 20260503180031 | 75 | 20 | 1.7 | 5.2 | 0.00 | 0.19 | 0.00 | 67 | 1017.6 |
| 20260503175513 | 76 | 347 | 0.9 | 4.3 | 0.00 | 0.19 | 0.00 | 65 | 1017.5 |
| 20260503175015 | 76 | 310 | 1.7 | 3.5 | 0.00 | 0.19 | 0.00 | 66 | 1017.5 |
| 20260503174537 | 75 | 210 | 0.9 | 4.3 | 0.00 | 0.19 | 0.00 | 70 | 1017.5 |
| 20260503174016 | 74 | 295 | 0.9 | 4.3 | 0.00 | 0.19 | 0.00 | 70 | 1017.5 |
| 20260503173514 | 74 | 10 | 1.7 | 7.8 | 0.00 | 0.19 | 0.00 | 69 | 1017.6 |
| 20260503173050 | 74 | 22 | 0.9 | 7.8 | 0.00 | 0.19 | 0.00 | 70 | 1017.6 |
| 20260503172515 | 74 | 333 | 1.7 | 7.8 | 0.00 | 0.19 | 0.00 | 70 | 1017.6 |
| 20260503172014 | 74 | 76 | 1.7 | 5.2 | 0.00 | 0.19 | 0.00 | 71 | 1017.7 |
| 20260503171534 | 73 | 69 | 1.7 | 5.2 | 0.00 | 0.19 | 0.00 | 74 | 1017.8 |
| 20260503171016 | 72 | 44 | 1.7 | 5.2 | 0.00 | 0.19 | 0.00 | 73 | 1017.8 |
| 20260503170517 | 73 | 319 | 1.7 | 4.3 | 0.00 | 0.19 | 0.00 | 73 | 1017.8 |
| 20260503151013 | 72 | 307 | 2.6 | 7.0 | 0.00 | 0.19 | 0.00 | 77 | 1017.7 |
| 20260503150520 | 71 | 341 | 1.7 | 7.0 | 0.00 | 0.19 | 0.00 | 79 | 1017.7 |
| 20260503131016 | 65 | 348 | 0.0 | 2.6 | 0.00 | 0.19 | 0.00 | 92 | 1017.0 |
| 20260503130516 | 65 | 331 | 0.0 | 3.5 | 0.00 | 0.19 | 0.00 | 93 | 1016.8 |
| 20260503110517 | 60 | 0 | 0.0 | 0.9 | 0.00 | 0.19 | 0.00 | 100 | 1015.8 |
| 20260503081537 | 61 | 0 | 0.0 | 0.0 | 0.00 | 0.19 | 0.00 | 100 | 1014.3 |
| 20260503081017 | 61 | 0 | 0.0 | 0.9 | 0.00 | 0.19 | 0.00 | 100 | 1014.0 |
| 20260503080517 | 61 | 0 | 0.0 | 0.9 | 0.00 | 0.19 | 0.00 | 100 | 1014.2 |
| 20260503072516 | 61 | 0 | 0.0 | 0.0 | 0.00 | 0.19 | 0.00 | 100 | 1014.2 |
| 20260503072016 | 61 | 0 | 0.0 | 0.0 | 0.00 | 0.19 | 0.00 | 100 | 1014.3 |
| 20260503071537 | 61 | 0 | 0.0 | 0.0 | 0.00 | 0.19 | 0.00 | 100 | 1014.3 |
| 20260503071014 | 61 | 0 | 0.0 | 0.0 | 0.00 | 0.19 | 0.00 | 100 | 1014.3 |
| 20260503070515 | 61 | 0 | 0.0 | 0.0 | 0.00 | 0.19 | 0.00 | 100 | 1014.3 |
| 20260503055016 | 62 | 0 | 0.0 | 0.9 | 0.00 | 0.19 | 0.00 | 100 | 1014.4 |
| 20260503054532 | 62 | 0 | 0.0 | 0.9 | 0.00 | 0.19 | 0.00 | 100 | 1014.3 |
| 20260503054014 | 63 | 0 | 0.0 | 0.9 | 0.00 | 0.19 | 0.00 | 100 | 1014.5 |
| 20260503053514 | 63 | 296 | 0.0 | 0.9 | 0.00 | 0.19 | 0.00 | 100 | 1014.5 |
| 20260503053038 | 63 | 0 | 0.0 | 0.0 | 0.00 | 0.19 | 0.00 | 100 | 1014.5 |
| 20260503052521 | 63 | 0 | 0.0 | 0.0 | 0.00 | 0.19 | 0.00 | 100 | 1014.4 |
| 20260503052017 | 63 | 0 | 0.0 | 0.0 | 0.00 | 0.19 | 0.00 | 100 | 1014.5 |
| 20260503051534 | 63 | 0 | 0.0 | 0.0 | 0.00 | 0.19 | 0.00 | 100 | 1014.5 |
| 20260503051018 | 63 | 0 | 0.0 | 0.0 | 0.00 | 0.19 | 0.00 | 100 | 1014.3 |
| 20260503050516 | 63 | 0 | 0.0 | 0.9 | 0.00 | 0.19 | 0.00 | 100 | 1014.4 |
| 20260503050036 | 63 | 0 | 0.0 | 0.9 | 0.00 | 0.19 | 0.00 | 100 | 1014.4 |
| 20260503045515 | 63 | 0 | 0.0 | 0.9 | 0.00 | 0.19 | 0.00 | 100 | 1014.2 |
| 20260503045014 | 63 | 0 | 0.0 | 0.9 | 0.00 | 0.19 | 0.00 | 100 | 1014.2 |
| 20260503044604 | 63 | 0 | 0.0 | 1.7 | 0.00 | 0.19 | 0.00 | 100 | 1014.1 |
| 20260503044014 | 63 | 0 | 0.0 | 1.7 | 0.00 | 0.19 | 0.00 | 100 | 1014.0 |
| 20260503043513 | 63 | 0 | 0.0 | 1.7 | 0.00 | 0.19 | 0.00 | 100 | 1013.9 |
| 20260503043033 | 63 | 0 | 0.0 | 1.7 | 0.00 | 0.19 | 0.00 | 100 | 1013.7 |
| 20260503042514 | 63 | 0 | 0.0 | 0.9 | 0.00 | 0.19 | 0.00 | 100 | 1013.6 |
| 20260503042015 | 63 | 0 | 0.0 | 0.0 | 0.00 | 0.19 | 0.00 | 100 | 1013.8 |
| 20260503041533 | 63 | 0 | 0.0 | 0.0 | 0.00 | 0.19 | 0.00 | 100 | 1013.7 |
| 20260503041018 | 63 | 0 | 0.0 | 0.9 | 0.00 | 0.19 | 0.00 | 100 | 1013.7 |
| 20260503040514 | 63 | 0 | 0.0 | 0.9 | 0.00 | 0.19 | 0.00 | 100 | 1013.7 |
| 20260503040034 | 63 | 292 | 0.0 | 0.9 | 0.00 | 0.19 | 0.00 | 100 | 1013.5 |
| 20260503035515 | 63 | 0 | 0.0 | 0.9 | 0.00 | 0.19 | 0.19 | 100 | 1013.6 |
| 20260503035014 | 63 | 0 | 0.0 | 1.7 | 0.00 | 0.19 | 0.19 | 100 | 1013.5 |
| 20260503034535 | 63 | 0 | 0.0 | 1.7 | 0.00 | 0.19 | 0.19 | 100 | 1013.5 |
| 20260503034013 | 64 | 276 | 0.0 | 0.9 | 0.00 | 0.19 | 0.19 | 100 | 1013.1 |
| 20260503033515 | 64 | 0 | 0.0 | 3.5 | 0.00 | 0.19 | 0.19 | 100 | 1013.0 |
| 20260503033037 | 64 | 0 | 0.0 | 3.5 | 0.00 | 0.19 | 0.19 | 100 | 1013.0 |
| 20260503032515 | 64 | 247 | 0.0 | 4.3 | 0.00 | 0.19 | 0.19 | 100 | 1013.0 |
| 20260503032017 | 64 | 326 | 0.9 | 4.3 | 0.00 | 0.19 | 0.19 | 100 | 1012.9 |
| 20260503031532 | 64 | 0 | 0.0 | 2.6 | 0.01 | 0.19 | 0.19 | 100 | 1012.8 |
| 20260503031016 | 64 | 125 | 0.0 | 2.6 | 0.01 | 0.19 | 0.19 | 100 | 1012.8 |
| 20260503030518 | 64 | 325 | 0.0 | 2.6 | 0.01 | 0.19 | 0.19 | 99 | 1012.8 |
| 20260503030040 | 65 | 17 | 0.0 | 2.6 | 0.01 | 0.19 | 0.19 | 100 | 1012.7 |
| 20260503025515 | 65 | 4 | 0.0 | 2.6 | 0.01 | 0.19 | 0.19 | 99 | 1012.7 |
| 20260503025016 | 65 | 230 | 0.9 | 3.5 | 0.02 | 0.19 | 0.19 | 99 | 1012.7 |
| 20260503024533 | 66 | 0 | 0.9 | 3.5 | 0.02 | 0.19 | 0.19 | 99 | 1012.4 |
| 20260503024015 | 66 | 347 | 0.0 | 3.5 | 0.02 | 0.19 | 0.19 | 100 | 1012.3 |
| 20260503023519 | 66 | 22 | 0.0 | 3.5 | 0.02 | 0.19 | 0.19 | 100 | 1012.1 |